Regional Weather Roundup
Issued by NWS Little Rock, AR

Home | Current Version | Previous Version | Text Only | Print | Product List | Glossary Off
Versions: 1 2 3 4 5 6 7 8 9 10 11 12 13 14 15 16 17 18 19 20 21 22 23 24 25 26 27 28 29 30 31 32 33 34 35 36 37 38 39 40 41 42 43 44 45 46 47 48

000
ASUS44 KLZK 281105
RWRLZK

WEATHER ROUNDUP FOR ARKANSAS
NATIONAL WEATHER SERVICE LITTLE ROCK AR
500 AM CST SAT FEB 28 2015

NOTE: "FAIR" INDICATES FEW OR NO CLOUDS BELOW 12,000 FEET WITH NO
SIGNIFICANT WEATHER AND/OR OBSTRUCTIONS TO VISIBILITY.

ARZ001-003-010-029-281200-
NORTHWEST ARKANSAS

CITY           SKY/WX    TMP DP  RH WIND       PRES   REMARKS
FAYETTEVILLE   LGT SNOW  19  16  88 NE5       30.45S FOG     WCI  12
FORT SMITH     LGT SNOW  23  19  85 E9        30.49S FOG     WCI  13
HARRISON       LGT SNOW  17  14  88 E8        30.47S FOG     WCI   7
BENTONVILLE    CLOUDY    19  12  73 E8        30.45S WCI   9
ROGERS         FLURRIES  18  15  88 E8        30.44F WCI   8
SILOAM SPGS    CLOUDY    19  10  68 E6        30.45F WCI  11
HIGHFILL       LGT SNOW  19  15  84 E8        30.44S FOG     WCI   9
$$

ARZ004-005-016-281200-
NORTH CENTRAL ARKANSAS

CITY           SKY/WX    TMP DP  RH WIND       PRES   REMARKS
BATESVILLE     CLOUDY    21  18  86 NE3       30.56S
FLIPPIN        MOCLDY    19  12  73 E5        30.52S WCI  13
MTN HOME       LGT SNOW  18  15  88 E6        30.51S FOG     WCI  10
$$

ARZ040-041-281200-
WEST CENTRAL ARKANSAS

CITY           SKY/WX    TMP DP  RH WIND       PRES   REMARKS
MENA           CLOUDY    25  21  86 E6        30.43S WCI  18
MOUNT IDA      LGT SNOW  23  19  85 E3        30.45R FOG
$$

ARZ009-017-025-026-028-281200-
NORTHEAST ARKANSAS

CITY           SKY/WX    TMP DP  RH WIND       PRES   REMARKS
CORNING        LGT SNOW  23  18  80 NE16      30.61R WCI  10
JONESBORO      CLOUDY    23  18  81 NE16      30.57R WCI  10
NEWPORT        CLOUDY    24  19  81 NE16      30.59R WCI  11
WALNUT RIDGE   CLOUDY    21  16  79 NE15      30.59S WCI   8
BLYTHEVILLE    CLOUDY    26  17  68 NE12      30.58R WCI  16
$$

ARZ022-023-033-042-044-281200-
CENTRAL ARKANSAS

CITY           SKY/WX    TMP DP  RH WIND       PRES   REMARKS
LITTLE ROCK    CLOUDY    27  16  63 NE9       30.53S WCI  18
N LITTLE ROCK    N/A     24  19  80 NE9       30.53S WCI  15
JACKSONVILLE   MIX PCPN  25  16  68 NE7       30.52R WCI  17
SEARCY         FLURRIES  25  18  74 NE14      30.56R WCI  13
HOT SPRINGS    CLOUDY    25  17  72 E10       30.48S WCI  15
RUSSELLVILLE   LGT SNOW  23  17  78 E6        30.51S WCI  16
CLINTON        CLOUDY    23  18  80 CALM      30.55S
$$

ARZ036-281200-
EAST ARKANSAS

CITY           SKY/WX    TMP DP  RH WIND       PRES   REMARKS
WEST MEMPHIS   CLOUDY    28  17  63 NE10      30.54R WCI  19
$$

ARZ050-053-066-070-073-281200-
SOUTHWEST ARKANSAS

CITY           SKY/WX    TMP DP  RH WIND       PRES   REMARKS
ARKADELPHIA    PTSUNNY   27  20  75 NE7       30.51R WCI  20
CAMDEN         CLOUDY    28  19  69 MISG      30.49R
TEXARKANA      CLOUDY    26  21  81 NE9       30.46R WCI  17
EL DORADO      CLOUDY    28  20  71 NE9       30.46R WCI  19
DE QUEEN       CLOUDY    26  20  77 E8        30.45R WCI  18
$$

ARZ056-057-069-281200-
SOUTHEAST ARKANSAS

CITY           SKY/WX    TMP DP  RH WIND       PRES   REMARKS
PINE BLUFF     CLOUDY    27  19  72 NE10      30.51S WCI  17
STUTTGART      CLOUDY    27  18  69 NE13      30.53R WCI  16
MONTICELLO     CLOUDY    29  20  69 NE5       30.48S WCI  24

$$





USA.gov is the U.S. government's official web portal to all federal, state and local government web resources and services.